FENGYUN 1C DEB

Satellite information

Favourite Embed

Satellite Type and Status

DEBRISIN ORBIT

Key statistics

Satellite FENGYUN 1C DEB at a glance.

Uptime

9555

Days in orbit

Revolutions

≈ 14.2

Per day

Orbit

SSO

Sun Synchronous Orbit

Inclination

98.6

Latest

Satellite identification and parameters

Extended collection of information and parameters for FENGYUN 1C DEB.

Object identification

Identified? True

Debris? True

Object name: FENGYUN 1C DEB

International designator: 1999-025CRK

Object number (NORAD): 32117

Object ID (CCSDS): 32117

Country: PEOPLES REPUBLIC OF CHINA (PRC)

Current information (Y/N): Y

RCS size: SMALL

Orbital parameters

Period: 101.19 minutes

Inclination: 98.6235 deg

SMA: 7193.159 km

Apoapsis: 834.829 km

Periapsis: 795.218 km

RAAN: 233.9819 deg

Eccentricy: 0.0027534

Argument of periapsis: 194.9752 deg

Mean anomaly: 165.0614 deg

Mean motion: 14.23060263 rev/day

Mean motion (dot): 0.00001467 rev/day2

B* drag term: 0.00066714 1/REarth

Two-line elements (TLE)

Creation date: July 4, 2025, 6:39 p.m.

Reference frame: TEME

Reference center: EARTH

Epoch: July 4, 2025, 8:44 a.m. UTC

TLE line 0: 0 FENGYUN 1C DEB

TLE line 1: 1 32117U 99025CRK 25185.36434921 .00001467 00000-0 66714-3 0 9997

TLE line 2: 2 32117 98.6235 233.9819 0027534 194.9752 165.0614 14.23060263925019

Live tracking on map

Real-time ground track for satellite FENGYUN 1C DEB.

In-orbit conjunctions

A list of the most updated potential collisions computed for object FENGYUN 1C DEB.

Target Orbit TCA Probability of collision Miss distance Type
FENGYUN 1C SSO 2025-03-29 11:29:43 0.0001526917 935.0 (m) PAYLOAD
ORBCOMM FM 5 DEB LEO 2024-11-07 19:56:40 0.0001958472 316.0 (m) DEBRIS
SL-3 R/B LEO 2024-09-08 04:23:36 0.0001240746 172.0 (m) ROCKET BODY
COSMOS 2369 LEO 2024-07-05 19:32:15 0.0004278297 109.0 (m) PAYLOAD

Associated space launch

Chinese polar orbiting meteorological satellite

FENGYUN 1C DEB was lifted into orbit during the mission ‘Long March 4B | Feng Yun 1C’, on board a Long March 4B space rocket.

The launch took place on May 10, 1999, 1:33 a.m. from Launch Complex 7.

For more information about the launch, click the button.

Launch to space Long March 4B | Feng Yun 1C
Long March 4B | Feng Yun 1C

Agency: N/A

Status: Launch Successful

Launch date: May 10, 1999, 1:33 a.m. UTC

Rocket: Long March 4B

Launch pad: Launch Complex 7

Location: Taiyuan Satellite Launch Center, People's Republic of China

...

Latest news about this satellite

There are no fresh news available about this satellite. Check back as we update our databases every day.


Newsletter sign-up

Weekly statistics, charts and insights to help you stay on top of the space industry.